K5BWX-7 Weather Reports


Display with metric or nautical units.
time (UTC)temp
F
wind
direction
speed
MPH
gust
MPH
rain 1hr
in
rain 24hr
in
rain mn
in
humidity
%
barometer
mb
20260902134515 84 156 1.0 3.0 0.00 0.00 0.00 76 1018.3
20260902133047 83 156 1.0 2.0 0.00 0.00 0.00 78 1018.2
20260902131511 82 156 1.0 2.0 0.00 0.00 0.00 79 1018.4
20260902130051 80 156 0.0 0.0 0.00 0.00 0.00 82 1018.3
20260902124525 78 156 0.0 0.0 0.00 0.00 0.00 85 1018.3
20260902123109 76 156 0.0 1.0 0.00 0.00 0.00 88 1018.3
20260902121521 74 156 0.0 0.0 0.00 0.00 0.00 89 1018.2
20260902120002 72 156 0.0 0.0 0.00 0.00 0.00 90 1018.1
20260902114547 71 156 0.0 0.0 0.00 0.00 0.00 90 1018.0
20260902113056 71 156 0.0 0.0 0.00 0.00 0.00 89 1017.8
20260902111545 71 156 0.0 2.0 0.00 0.00 0.00 90 1017.7
20260902110014 71 156 0.0 0.0 0.00 0.00 0.00 90 1017.5
20260902104553 71 156 0.0 0.0 0.00 0.00 0.00 89 1017.5
20260902103014 71 156 0.0 0.0 0.00 0.00 0.00 89 1017.2
20260902101554 71 156 0.0 0.0 0.00 0.00 0.00 89 1017.0
20260902100035 72 156 0.0 0.0 0.00 0.00 0.00 89 1017.0
20260902094512 72 156 0.0 0.0 0.00 0.00 0.00 89 1016.8
20260902093037 72 156 0.0 0.0 0.00 0.00 0.00 88 1016.7
20260902091518 72 156 0.0 0.0 0.00 0.00 0.00 88 1016.5
20260902090050 72 156 0.0 0.0 0.00 0.00 0.00 88 1016.4
20260902084526 72 156 0.0 0.0 0.00 0.00 0.00 87 1016.2
20260902083053 72 156 0.0 0.0 0.00 0.00 0.00 87 1016.3
20260902081527 73 156 0.0 0.0 0.00 0.00 0.00 87 1016.2
20260902080101 73 156 0.0 0.0 0.00 0.00 0.00 86 1016.1
20260902080003 73 156 0.0 0.0 0.00 0.00 0.00 86 1016.1
20260902074540 73 156 0.0 0.0 0.00 0.00 0.00 85 1016.2
20260902073058 73 156 0.0 0.0 0.00 0.00 0.00 85 1016.2
20260902071546 73 156 0.0 0.0 0.00 0.00 0.00 85 1016.1
20260902070016 74 156 0.0 0.0 0.00 0.00 0.00 84 1016.0
20260902064554 74 156 0.0 0.0 0.00 0.00 0.00 84 1016.1
20260902063015 74 156 0.0 0.0 0.00 0.00 0.00 83 1016.1
20260902061613 75 156 0.0 0.0 0.00 0.00 0.00 83 1016.1
20260902060030 75 156 0.0 0.0 0.00 0.00 0.00 82 1016.1
20260902054508 75 156 0.0 0.0 0.00 0.00 0.00 82 1016.2
20260902053031 76 156 0.0 0.0 0.00 0.00 0.00 81 1016.3
20260902051511 76 156 0.0 0.0 0.00 0.00 0.00 80 1016.3
20260902050043 76 156 0.0 0.0 0.00 0.00 0.00 79 1016.1
20260902044522 77 156 0.0 0.0 0.00 0.00 0.00 79 1016.2
20260902043041 77 156 0.0 0.0 0.00 0.00 0.00 78 1016.3
20260902041537 77 156 0.0 0.0 0.00 0.00 0.00 77 1016.3
20260902040052 78 156 0.0 0.0 0.00 0.00 0.00 76 1016.4
20260902034533 79 156 0.0 0.0 0.00 0.00 0.00 75 1016.3
20260902033056 79 156 0.0 0.0 0.00 0.00 0.00 74 1016.4
20260902031537 80 156 0.0 0.0 0.00 0.00 0.00 73 1016.4
20260902030014 80 156 0.0 0.0 0.00 0.00 0.00 73 1016.4
20260902024555 80 156 0.0 1.0 0.00 0.00 0.00 72 1016.5
20260902023017 80 156 0.0 4.0 0.00 0.00 0.00 72 1016.5
20260902021604 81 156 0.0 0.0 0.00 0.00 0.00 71 1016.4
20260902020048 81 156 0.0 0.0 0.00 0.00 0.00 69 1016.1
20260902014512 82 156 0.0 0.0 0.00 0.00 0.00 68 1016.1
20260902013033 83 156 0.0 0.0 0.00 0.00 0.00 67 1016.0
20260902011505 84 156 0.0 0.0 0.00 0.00 0.00 66 1015.9
20260902010043 85 156 0.0 0.0 0.00 0.00 0.00 64 1015.8
20260902004528 86 156 0.0 0.0 0.00 0.00 0.00 61 1015.6
20260902003038 88 156 0.0 0.0 0.00 0.00 0.00 59 1015.6
20260902001520 90 156 0.0 0.0 0.00 0.00 0.00 57 1015.6
20260901234544 94 156 0.0 0.0 0.00 0.00 0.00 49 1015.6
20260901233110 95 156 0.0 0.0 0.00 0.00 0.00 46 1015.6
20260901233005 95 156 0.0 0.0 0.00 0.00 0.00 46 1015.6
20260901231545 95 156 0.0 1.0 0.00 0.00 0.00 41 1015.7
20260901230038 95 156 1.0 5.0 0.00 0.00 0.00 41 1015.6
20260901224558 96 128 1.0 5.0 0.00 0.00 0.00 41 1015.6
20260901223024 97 105 0.0 4.0 0.00 0.00 0.00 40 1015.6
20260901221503 97 10 2.0 5.0 0.00 0.00 0.00 40 1015.5
20260901220048 96 130 0.0 6.0 0.00 0.00 0.00 43 1015.4
20260901214517 96 46 3.0 5.0 0.00 0.00 0.00 43 1015.7
20260901213041 94 129 0.0 5.0 0.00 0.00 0.00 46 1015.7
20260901211516 93 157 2.0 6.0 0.00 0.00 0.00 47 1015.8
20260901210108 95 146 3.0 8.0 0.00 0.00 0.00 45 1015.9
20260901204541 95 31 3.0 7.0 0.00 0.00 0.00 45 1015.8
20260901203110 95 129 3.0 6.0 0.00 0.00 0.00 45 1016.1
20260901201537 95 145 3.0 6.0 0.00 0.00 0.00 44 1016.2
20260901200019 94 155 2.0 5.0 0.00 0.00 0.00 47 1016.3
20260901194552 93 344 3.0 6.0 0.00 0.00 0.00 47 1016.4
20260901193021 94 50 2.0 7.0 0.00 0.00 0.00 47 1016.7
20260901191602 93 315 2.0 5.0 0.00 0.00 0.00 48 1016.8
20260901190050 93 159 3.0 6.0 0.00 0.00 0.00 49 1017.0
20260901184511 94 137 2.0 5.0 0.00 0.00 0.00 49 1017.2
20260901183031 95 227 2.0 6.0 0.00 0.00 0.00 47 1017.2
20260901181507 95 24 2.0 8.0 0.00 0.00 0.00 46 1017.4
20260901180047 94 327 3.0 9.0 0.00 0.00 0.00 46 1017.4
20260901174532 94 269 3.0 7.0 0.00 0.00 0.00 47 1017.4
20260901173043 93 232 3.0 7.0 0.00 0.00 0.00 48 1017.7
20260901171526 94 178 0.0 8.0 0.00 0.00 0.00 48 1018.0
20260901170100 93 229 1.0 8.0 0.00 0.00 0.00 50 1018.4
20260901164544 92 256 4.0 8.0 0.00 0.00 0.00 51 1018.5
20260901163003 92 320 3.0 12.0 0.00 0.00 0.00 52 1018.5
20260901161541 92 286 4.0 8.0 0.00 0.00 0.00 53 1018.8
20260901160025 91 194 4.0 8.0 0.00 0.00 0.00 56 1018.9
20260901154558 90 231 5.0 8.0 0.00 0.00 0.00 58 1018.9
20260901153030 90 325 3.0 8.0 0.00 0.00 0.00 59 1018.8
20260901151555 89 324 5.0 11.0 0.00 0.00 0.00 58 1019.0
20260901151504 89 315 5.0 11.0 0.00 0.00 0.00 58 1019.0
20260901150043 89 238 3.0 6.0 0.00 0.00 0.00 61 1018.9
20260901144521 88 202 1.0 6.0 0.00 0.00 0.00 63 1019.0
20260901143041 87 205 2.0 5.0 0.00 0.00 0.00 65 1019.0
20260901141521 86 173 2.0 4.0 0.00 0.00 0.00 69 1019.1
20260901140056 85 207 1.0 3.0 0.00 0.00 0.00 72 1019.1